[[{"header":{"parameterUnit":"m.s-1","parameterCategory":2,"la1":30.2992,"la2":30.254,"lo1":-89.0895,"lo2":-89.0443,"dy":0.0025,"dx":0.0025,"nx":19,"ny":19,"refTime":"2026-05-23T21:00:00:Z","depth":"0","parameterNumber":2,"parameterNumberName":"U-component_of_CURRENTS"},"data":[0,0,0,0.2161,0.2162,0.222,0.2221,0.2318,0.2319,0,0,0,0,0,0,0,0,0,0,0,0.2131,0.2131,0.2161,0.2163,0.222,0.2221,0.2318,0.2319,0,0,0,0,0,0,0,0,0,0,0,0.2131,0.2131,0.2131,0.2163,0.222,0.2221,0.2317,0.2269,0,0,0,0,0,0,0,0,0,0,0.221,0.2164,0.2131,0.2131,0.2163,0.222,0.2221,0.2266,0.2272,0.2298,0,0.2297,0,0.2315,0.2325,0.2326,0,0,0,0.2165,0.2159,0.219,0.2131,0.2164,0.222,0.2195,0.2269,0.2275,0.2305,0.2299,0.2303,0.2317,0.2326,0.2327,0.2388,0.2388,0,0,0.2162,0.2132,0.2185,0.2193,0.2168,0.2193,0.2197,0.2273,0.2266,0.2299,0.2305,0.2318,0.2327,0.2328,0.2388,0.2388,0,0,0,0.2151,0.2129,0.2157,0.2189,0.2201,0.2195,0.2199,0.2263,0.2276,0.2306,0.2319,0.2327,0.2329,0.2388,0.2388,0.2372,0,0,0,0.2149,0.2123,0.2155,0.2137,0.2199,0.2226,0.2187,0.227,0.228,0.2319,0.2327,0.233,0.2388,0.2388,0.2372,0.237,0,0,0,0.213,0.2121,0.2128,0.2135,0.2162,0.2226,0.2242,0.2272,0.2288,0.2326,0.233,0.2389,0.2388,0.2373,0.2371,0.2426,0,0,0,0.2099,0.2081,0.2126,0.2113,0.2162,0.2194,0.2242,0.2265,0.229,0.2328,0.2388,0.2388,0.2373,0.2372,0.2426,0.2516,0.2526,0,0,0.2058,0.2075,0.2071,0.2113,0.2134,0.2187,0.2213,0.2265,0.2299,0.2366,0.2368,0.2372,0.2371,0.2426,0.2504,0.2514,0,0,0,0.2047,0.2044,0.2057,0.2082,0.2126,0.218,0.223,0.2264,0.2321,0.2315,0.2372,0.2372,0.2408,0.2461,0.2469,0.262,0.2387,0.2387,0.2387,0.1939,0.199,0.1993,0.206,0.2094,0.2174,0.222,0.2279,0.2307,0.2326,0.2359,0.2388,0.2442,0.245,0.2602,0.2356,0.2356,0.2356,0.2356,0.1883,0.1889,0.1965,0.1991,0.2073,0.2114,0.2227,0.2263,0.2352,0.2348,0.2384,0.244,0.2458,0.2618,0.2355,0.2355,0.2355,0.2355,0.2355,0.1813,0.1827,0.186,0.1915,0.1986,0.2085,0.2185,0.2265,0.234,0.2374,0.2479,0.248,0.2626,0.2406,0.2406,0.2407,0.2407,0.2407,0.2407,0.1726,0.1767,0.1778,0.1844,0.1888,0.199,0.2161,0.2262,0.242,0.2479,0.248,0.2662,0.2404,0.2408,0.2411,0.241,0.2409,0.2409,0.2409,0.1651,0.1667,0.1679,0.1712,0.182,0.1922,0.2104,0.2363,0.2475,0.2571,0.2808,0.2556,0.2584,0.2578,0.2587,0.2636,0.2636,0.2636,0.2636,0.1585,0.1599,0.1609,0.1646,0.1731,0.189,0.2098,0.2363,0.2736,0.2936,0.2985,0.3001,0.2985,0.3037,0.3021,0.3039,0.3202,0.3202,0.3203,0.154,0.1554,0.1538,0.1583,0.1686,0.1867,0.2063,0.2357,0.295,0.3238,0.318,0.3156,0.3186,0.3149,0.323,0.3196,0.3224,0,0]},{"header":{"parameterUnit":"m.s-1","parameterCategory":2,"la1":30.2992,"la2":30.254,"lo1":-89.0895,"lo2":-89.0443,"dy":0.0025,"dx":0.0025,"nx":19,"ny":19,"refTime":"2026-05-23T21:00:00:Z","depth":"0","parameterNumber":3,"parameterNumberName":"V-component_of_CURRENTS"},"data":[0,0,0,-0.0496,-0.0497,-0.0534,-0.0535,-0.0596,-0.0596,0,0,0,0,0,0,0,0,0,0,0,-0.048,-0.048,-0.0496,-0.0497,-0.0534,-0.0535,-0.0596,-0.0596,0,0,0,0,0,0,0,0,0,0,0,-0.048,-0.048,-0.048,-0.0497,-0.0534,-0.0535,-0.0596,-0.0565,0,0,0,0,0,0,0,0,0,0,-0.0527,-0.0501,-0.048,-0.048,-0.0497,-0.0534,-0.0535,-0.0563,-0.0567,-0.0581,0,-0.0582,0,-0.0591,-0.06,-0.0601,0,0,0,-0.0501,-0.0498,-0.0516,-0.048,-0.0497,-0.0534,-0.0518,-0.0565,-0.0569,-0.0586,-0.0583,-0.0586,-0.0592,-0.0601,-0.0601,-0.0628,-0.0628,0,0,-0.0499,-0.0481,-0.0513,-0.0518,-0.0502,-0.0517,-0.052,-0.0567,-0.0565,-0.0584,-0.0587,-0.0593,-0.0601,-0.0602,-0.0628,-0.0628,0,0,0,-0.049,-0.048,-0.0496,-0.0516,-0.0522,-0.0518,-0.0521,-0.0563,-0.057,-0.0588,-0.0594,-0.0602,-0.0602,-0.0628,-0.0628,-0.0572,0,0,0,-0.0489,-0.0475,-0.0495,-0.0485,-0.052,-0.0539,-0.0515,-0.0567,-0.0572,-0.0594,-0.0602,-0.0603,-0.0628,-0.0628,-0.0574,-0.052,0,0,0,-0.0479,-0.0474,-0.0478,-0.0484,-0.05,-0.0538,-0.0548,-0.0568,-0.0576,-0.0601,-0.0603,-0.0628,-0.0628,-0.0576,-0.0524,-0.0514,0,0,0,-0.0461,-0.0447,-0.0477,-0.0458,-0.05,-0.0505,-0.0548,-0.0554,-0.0568,-0.0602,-0.0628,-0.0628,-0.0576,-0.0527,-0.0516,-0.0425,-0.0408,0,0,-0.0432,-0.0443,-0.043,-0.0458,-0.0442,-0.05,-0.049,-0.0528,-0.0571,-0.0615,-0.0615,-0.0573,-0.0524,-0.0514,-0.0403,-0.0386,0,0,0,-0.0412,-0.0402,-0.0404,-0.04,-0.0421,-0.0434,-0.0483,-0.0514,-0.0552,-0.0578,-0.0581,-0.0552,-0.0547,-0.0498,-0.0484,-0.0443,-0.0626,-0.0626,-0.0626,-0.035,-0.0357,-0.0327,-0.034,-0.0348,-0.039,-0.041,-0.0463,-0.0516,-0.0527,-0.0513,-0.0472,-0.0418,-0.0407,-0.0366,-0.0538,-0.0537,-0.0537,-0.0537,-0.0282,-0.0249,-0.0265,-0.0241,-0.0265,-0.0267,-0.034,-0.0383,-0.0425,-0.0471,-0.0472,-0.0449,-0.0389,-0.0351,-0.0534,-0.0534,-0.0535,-0.0535,-0.0535,-0.0219,-0.0201,-0.0197,-0.0162,-0.0146,-0.0188,-0.0177,-0.0257,-0.0351,-0.0351,-0.0327,-0.0327,-0.0288,-0.0365,-0.0365,-0.0364,-0.0364,-0.0364,-0.0364,-0.0144,-0.014,-0.01,-0.008,-0.0052,-0.0034,-0.0084,-0.011,-0.0175,-0.0236,-0.0236,-0.0254,-0.0419,-0.042,-0.0359,-0.036,-0.0361,-0.0361,-0.0362,-0.0043,-0.0058,0.0004,0.0035,0.0095,0.0181,0.0111,0.0092,0.002,0.0009,-0.0063,-0.0193,-0.0201,-0.0212,-0.0208,-0.0096,-0.0096,-0.0096,-0.0096,0.0026,0.0022,0.0104,0.0163,0.0234,0.0279,0.0417,0.0402,0.0243,0.0177,0.0068,0.0055,0.0043,0.0046,0.003,0.0037,0.0208,0.0208,0.0209,0.0098,0.0106,0.0182,0.0219,0.0301,0.0413,0.0618,0.0794,0.0511,0.022,0.0109,0.0096,0.0072,0.0048,0.0043,0.0016,0.0023,0,0]}],[{"header":{"parameterUnit":"m.s-1","parameterCategory":2,"la1":30.2992,"la2":30.254,"lo1":-89.0895,"lo2":-89.0443,"dy":0.0025,"dx":0.0025,"nx":19,"ny":19,"refTime":"2026-05-23T21:00:00:Z","depth":"2","parameterNumber":2,"parameterNumberName":"U-component_of_CURRENTS"},"data":[0,0,0,0.2168,0.2169,0.2192,0.2192,0.2278,0.2279,0,0,0,0,0,0,0,0,0,0,0,0.2163,0.2163,0.2168,0.2169,0.2192,0.2192,0.2277,0.2279,0,0,0,0,0,0,0,0,0,0,0,0.2162,0.2163,0.2163,0.2169,0.2192,0.2192,0.2277,0.2244,0,0,0,0,0,0,0,0,0,0,0.2214,0.2189,0.2163,0.2163,0.2169,0.2192,0.2192,0.2242,0.2247,0.2284,0,0.2294,0,0.2292,0.2286,0.2286,0,0,0,0.2163,0.2185,0.2207,0.2163,0.217,0.2192,0.218,0.2244,0.2249,0.2291,0.2295,0.2298,0.2294,0.2287,0.2287,0.2452,0.2453,0,0,0.2162,0.2152,0.2204,0.2211,0.2186,0.218,0.2181,0.2246,0.2248,0.2295,0.23,0.2295,0.2287,0.2288,0.2451,0.2452,0,0,0,0.2162,0.2151,0.217,0.2208,0.221,0.218,0.2182,0.2245,0.2256,0.23,0.2296,0.2288,0.2289,0.245,0.2451,0.2462,0,0,0,0.2161,0.2152,0.217,0.2162,0.2208,0.2216,0.2179,0.2251,0.2258,0.2296,0.2288,0.2291,0.2449,0.2451,0.2459,0.246,0,0,0,0.216,0.2151,0.216,0.2162,0.2176,0.2215,0.2228,0.2252,0.2256,0.2286,0.2291,0.2448,0.245,0.2457,0.2457,0.2517,0,0,0,0.214,0.2143,0.216,0.2171,0.2176,0.222,0.2228,0.2253,0.2278,0.2289,0.2449,0.2451,0.2456,0.2455,0.2515,0.2461,0.2469,0,0,0.2131,0.2142,0.2151,0.2167,0.22,0.2216,0.2279,0.2308,0.2333,0.2428,0.2431,0.246,0.2457,0.2517,0.2594,0.2597,0,0,0,0.214,0.2142,0.216,0.2181,0.2225,0.228,0.2312,0.236,0.2437,0.2361,0.2505,0.2503,0.254,0.2504,0.2508,0.2462,0.2462,0.2462,0.2462,0.2086,0.2123,0.2142,0.2196,0.2239,0.233,0.2392,0.247,0.2482,0.2534,0.2544,0.2641,0.2604,0.2606,0.2584,0.2585,0.2585,0.2585,0.2585,0.2063,0.2072,0.2131,0.2157,0.2246,0.231,0.2468,0.2509,0.2642,0.2621,0.2656,0.2557,0.261,0.2587,0.2586,0.2586,0.2586,0.2586,0.2586,0.2018,0.2029,0.205,0.21,0.2178,0.2293,0.2413,0.2532,0.264,0.2691,0.2675,0.2673,0.2633,0.2713,0.2714,0.2714,0.2714,0.2714,0.2714,0.1959,0.1987,0.1989,0.2046,0.2079,0.218,0.238,0.249,0.2635,0.2696,0.2696,0.2685,0.2681,0.2643,0.2719,0.2718,0.2718,0.2717,0.2717,0.1905,0.1913,0.1911,0.1928,0.2005,0.2057,0.226,0.2463,0.2607,0.2673,0.2716,0.2714,0.2711,0.2707,0.2672,0.2751,0.2751,0.2751,0.2751,0.1857,0.1867,0.1841,0.1845,0.1897,0.1998,0.2034,0.2068,0.2302,0.226,0.2279,0.2186,0.2199,0.216,0.2169,0.212,0.2055,0.2053,0.2051,0.1822,0.1819,0.1774,0.1774,0.1823,0.1911,0.1813,0.168,0.1741,0.2005,0.1967,0.2741,0.266,0.2658,0.2643,0.2639,0.2579,0,0]},{"header":{"parameterUnit":"m.s-1","parameterCategory":2,"la1":30.2992,"la2":30.254,"lo1":-89.0895,"lo2":-89.0443,"dy":0.0025,"dx":0.0025,"nx":19,"ny":19,"refTime":"2026-05-23T21:00:00:Z","depth":"2","parameterNumber":3,"parameterNumberName":"V-component_of_CURRENTS"},"data":[0,0,0,0.0353,0.0352,0.0296,0.0295,0.0209,0.0208,0,0,0,0,0,0,0,0,0,0,0,0.0375,0.0375,0.0353,0.0352,0.0296,0.0295,0.0209,0.0208,0,0,0,0,0,0,0,0,0,0,0,0.0375,0.0375,0.0375,0.0352,0.0296,0.0295,0.0209,0.0252,0,0,0,0,0,0,0,0,0,0,0.0307,0.0327,0.0375,0.0375,0.0352,0.0296,0.0295,0.0254,0.0249,0.0235,0,0.0239,0,0.0227,0.0204,0.0203,0,0,0,0.0337,0.0331,0.0326,0.0375,0.0352,0.0296,0.0317,0.0251,0.0246,0.0229,0.0238,0.0234,0.0225,0.0203,0.0203,0.0223,0.0223,0,0,0.034,0.035,0.033,0.0324,0.0353,0.0319,0.0316,0.0248,0.0243,0.0237,0.0232,0.0224,0.0203,0.0202,0.0222,0.0223,0,0,0,0.036,0.0352,0.0349,0.0327,0.0321,0.0318,0.0314,0.0245,0.0248,0.0231,0.0223,0.0202,0.0201,0.0221,0.0222,0.031,0,0,0,0.0361,0.0365,0.0351,0.0353,0.0323,0.0282,0.0313,0.0252,0.0244,0.0223,0.0202,0.0201,0.022,0.0222,0.0306,0.0371,0,0,0,0.0375,0.0365,0.0366,0.0354,0.0337,0.0284,0.028,0.025,0.024,0.0203,0.0201,0.022,0.0221,0.0302,0.0364,0.0394,0,0,0,0.0375,0.0399,0.0367,0.0396,0.0338,0.0355,0.0281,0.0264,0.024,0.0202,0.022,0.0222,0.0301,0.036,0.039,0.0482,0.0509,0,0,0.0412,0.0404,0.0426,0.0396,0.0443,0.036,0.0406,0.033,0.0263,0.0237,0.0237,0.0307,0.0363,0.0393,0.0585,0.0608,0,0,0,0.0443,0.0457,0.0468,0.0482,0.0479,0.0486,0.0411,0.0387,0.0343,0.026,0.0319,0.0352,0.0368,0.0415,0.0434,0.0231,0.023,0.023,0.023,0.0478,0.0496,0.0543,0.0564,0.0578,0.0564,0.0567,0.0518,0.0428,0.0426,0.0431,0.053,0.0583,0.0597,0.0424,0.0425,0.0425,0.0425,0.0426,0.0537,0.0564,0.0598,0.0642,0.0666,0.0688,0.0694,0.0645,0.063,0.0543,0.0551,0.0516,0.0623,0.0433,0.0431,0.043,0.043,0.0429,0.0429,0.0546,0.0567,0.0589,0.066,0.0726,0.0751,0.0835,0.0794,0.0719,0.0735,0.0728,0.0727,0.0576,0.0703,0.0703,0.0704,0.0704,0.0704,0.0705,0.0535,0.0572,0.0616,0.0686,0.074,0.083,0.089,0.0921,0.0912,0.0858,0.0858,0.0623,0.0614,0.0593,0.0711,0.071,0.0709,0.0709,0.0708,0.0558,0.0561,0.0634,0.0689,0.0838,0.1001,0.1049,0.1149,0.1125,0.1149,0.0923,0.0915,0.0895,0.0879,0.0865,0.1047,0.1047,0.1047,0.1047,0.0564,0.0576,0.0671,0.0774,0.093,0.1087,0.1262,0.1205,0.1119,0.0918,0.0921,0.0859,0.0851,0.082,0.0806,0.0786,0.0948,0.0947,0.0946,0.0596,0.0621,0.069,0.0784,0.0973,0.1211,0.1351,0.1231,0.0887,0.0925,0.0728,0.1074,0.0994,0.0977,0.0934,0.091,0.0879,0,0]}],[{"header":{"parameterUnit":"m.s-1","parameterCategory":2,"la1":30.2992,"la2":30.254,"lo1":-89.0895,"lo2":-89.0443,"dy":0.0025,"dx":0.0025,"nx":19,"ny":19,"refTime":"2026-05-23T21:00:00:Z","depth":"4","parameterNumber":2,"parameterNumberName":"U-component_of_CURRENTS"},"data":[0,0,0,0.0776,0.0784,0.1073,0.1073,0.1103,0.1103,0,0,0,0,0,0,0,0,0,0,0,0.067,0.0673,0.0775,0.0785,0.1073,0.1073,0.1103,0.1103,0,0,0,0,0,0,0,0,0,0,0,0.0668,0.0672,0.0677,0.0787,0.1073,0.1073,0.1103,0.0953,0,0,0,0,0,0,0,0,0,0,0.0709,0.0732,0.0671,0.0677,0.0789,0.1073,0.1073,0.0949,0.0962,0.0897,0,0.1007,0,0.1085,0.1104,0.1104,0,0,0,0.0717,0.0722,0.0768,0.0678,0.0793,0.1073,0.0924,0.0959,0.0974,0.0913,0.1009,0.1013,0.1085,0.1104,0.1104,0.1123,0.1123,0,0,0.0701,0.0729,0.076,0.078,0.0947,0.0915,0.0934,0.0971,0.1031,0.1009,0.1016,0.1086,0.1104,0.1104,0.1123,0.1123,0,0,0,0.0701,0.0719,0.077,0.0775,0.0873,0.0925,0.0946,0.1029,0.1041,0.1017,0.1086,0.1104,0.1104,0.1122,0.1123,0.1268,0,0,0,0.0688,0.0723,0.0764,0.0784,0.0876,0.1017,0.1004,0.1037,0.1046,0.1086,0.1104,0.1104,0.1122,0.1123,0.1264,0.1294,0,0,0,0.0642,0.0719,0.077,0.0785,0.0939,0.1019,0.1033,0.1041,0.1089,0.1104,0.1104,0.1122,0.1123,0.126,0.1288,0.1289,0,0,0,0.0627,0.0694,0.0773,0.0847,0.0937,0.102,0.1034,0.114,0.1166,0.1104,0.1122,0.1123,0.1259,0.1284,0.1286,0.0979,0,0,0,0.0657,0.0702,0.0717,0.0791,0.0876,0.0971,0.1076,0.1157,0.113,0.1073,0.1077,0.1265,0.1288,0.1288,0.1001,0,0,0,0,0.0682,0.0742,0.0765,0.0867,0.0923,0.1076,0.1177,0.1188,0.1235,0.1167,0.1231,0.1239,0.1236,0.1045,0.1124,0.1124,0.1124,0.1124,0.1124,0.0747,0.0754,0.0825,0.0905,0.1001,0.116,0.123,0.1268,0.1263,0.1313,0.1335,0.1397,0.1202,0.1321,0.1322,0.1323,0.1323,0.1324,0.1324,0.0747,0.0777,0.0888,0.0993,0.1145,0.1286,0.135,0.1398,0.1424,0.1404,0.1395,0.1183,0.1337,0.1335,0.1333,0.1331,0.133,0.1329,0.1329,0.0725,0.0758,0.0882,0.1067,0.1267,0.142,0.1453,0.1531,0.1527,0.1558,0.1316,0.1457,0.1468,0.1575,0.1575,0.1575,0.1576,0.1576,0.1576,0.0661,0.0771,0.0955,0.1163,0.13,0.1438,0.1537,0.1456,0.1487,0.1402,0.1604,0.148,0.1471,0.1478,0.1579,0.1578,0.1578,0.1578,0.1577,0.0639,0.0777,0.0915,0.1084,0.1303,0.1293,0.1453,0.1267,0.1204,0.1055,0.1278,0.1292,0.119,0.1188,0.1182,0.1198,0.1195,0.1191,0,0.0638,0.0718,0.088,0.1013,0.106,0.1167,0.0997,0.0909,0.091,0.098,0.1086,0.1347,0.1354,0.1239,0.1231,0.1221,0,0,0,0.0649,0.0657,0.0717,0.0876,0.0909,0.0833,0.0904,0.0817,0.1091,0.0738,0.11,0.1124,0.1111,0.1587,0.1462,0.1452,0.1455,0,0]},{"header":{"parameterUnit":"m.s-1","parameterCategory":2,"la1":30.2992,"la2":30.254,"lo1":-89.0895,"lo2":-89.0443,"dy":0.0025,"dx":0.0025,"nx":19,"ny":19,"refTime":"2026-05-23T21:00:00:Z","depth":"4","parameterNumber":3,"parameterNumberName":"V-component_of_CURRENTS"},"data":[0,0,0,0.0307,0.0308,0.027,0.0269,0.0092,0.0091,0,0,0,0,0,0,0,0,0,0,0,0.0319,0.0319,0.0307,0.0308,0.027,0.0269,0.0092,0.0091,0,0,0,0,0,0,0,0,0,0,0,0.0318,0.0319,0.032,0.0308,0.027,0.0269,0.0093,0.0142,0,0,0,0,0,0,0,0,0,0,0.0191,0.0248,0.0319,0.032,0.0308,0.027,0.0269,0.0146,0.0139,0.0088,0,0.0118,0,0.0119,0.008,0.008,0,0,0,0.0262,0.0254,0.0242,0.032,0.0309,0.027,0.0274,0.0143,0.0135,0.0079,0.0116,0.011,0.0116,0.0079,0.0079,-0.0063,-0.0063,0,0,0.0264,0.0299,0.0248,0.0239,0.0343,0.0276,0.0273,0.0139,0.0149,0.0115,0.0106,0.0113,0.0078,0.0077,-0.0063,-0.0063,0,0,0,0.0301,0.0301,0.0293,0.0245,0.0259,0.0276,0.0273,0.0154,0.0153,0.0105,0.0111,0.0077,0.0075,-0.0062,-0.0063,-0.0004,0,0,0,0.03,0.0325,0.0295,0.0313,0.0264,0.0228,0.0291,0.0162,0.0147,0.0112,0.0077,0.0074,-0.0062,-0.0063,-0.0005,0.0047,0,0,0,0.0312,0.0326,0.0336,0.0315,0.032,0.0231,0.022,0.0158,0.0153,0.008,0.0074,-0.0062,-0.0062,-0.0005,0.0044,0.0027,0,0,0,0.0325,0.033,0.0337,0.0331,0.0321,0.0259,0.0221,0.0161,0.0101,0.0077,-0.0062,-0.0063,-0.0005,0.0043,0.0027,0.0027,0,0,0,0.0321,0.0331,0.0316,0.0322,0.0277,0.0258,0.0194,0.0111,0.0066,-0.0034,-0.0037,-0.0004,0.0044,0.0027,-0.0027,0,0,0,0,0.0305,0.0316,0.0298,0.0286,0.0239,0.0212,0.0143,0.0102,0.0024,0.0039,-0.0039,-0.0011,-0.0023,-0.0028,-0.0067,-0.0067,-0.0067,-0.0067,-0.0067,0.0342,0.0305,0.0288,0.0255,0.0227,0.0161,0.0118,0.0052,0.0012,-0.0012,0.001,0.0006,-0.0,-0.0036,-0.0036,-0.0035,-0.0035,-0.0035,-0.0035,0.0342,0.0333,0.0308,0.0303,0.0264,0.0238,0.0124,0.0092,0.0026,0.0008,-0.0008,0.0002,-0.003,-0.0031,-0.0032,-0.0032,-0.0033,-0.0033,-0.0033,0.0367,0.0359,0.0389,0.0394,0.0394,0.0341,0.0298,0.0223,0.0107,0.009,0.006,0.0034,0.0058,0.0085,0.0085,0.0085,0.0085,0.0085,0.0085,0.0393,0.0404,0.0481,0.0502,0.053,0.0535,0.0432,0.033,0.0201,0.0134,0.0123,0.0046,0.0042,0.0063,0.0088,0.0087,0.0087,0.0087,0.0086,0.0407,0.0474,0.0538,0.0599,0.0641,0.06,0.0563,0.0352,0.0248,0.0118,0.012,0.0118,0.0094,0.0089,0.0111,0.0151,0.0151,0.0152,0,0.0435,0.0468,0.0565,0.0626,0.0624,0.0601,0.0474,0.0338,0.0166,0.0201,0.015,0.0157,0.0154,0.013,0.0125,0.0153,0,0,0,0.0448,0.0464,0.0515,0.0589,0.0578,0.0453,0.0413,0.0337,0.0298,0.0115,0.0155,0.0154,0.0046,0.0094,0.0052,0.0047,0.0079,0,0]}]]